Miscellaneous Local Product
Issued by NWS Hastings, NE

Home | Current Version | Previous Version | Graphics & Text | Print | Product List | Glossary On
Versions: 1 2 3 4 5 6 7 8 9 10 11 12 13 14 15 16 17 18 19 20 21 22 23 24 25 26 27 28 29 30 31 32 33 34 35 36 37 38 39 40 41 42 43 44 45 46 47 48 49 50
000
AXUS43 KGID 201002
MISGRI

GID CWA HOURLY WEATHER ROUNDUP
NATIONAL WEATHER SERVICE HASTINGS NE
500 AM CDT MON OCT 20 2014

NOTE: "FAIR" INDICATES FEW OR NO CLOUDS BELOW 12,000 FEET WITH NO
SIGNIFICANT WEATHER AND/OR OBSTRUCTIONS TO VISIBILITY.

...SOUTH CENTRAL NEBRASKA...

CITY           SKY/WX    TMP DP  RH WIND       PRES   REMARKS
GRAND ISLAND   CLEAR     44  41  89 W6        30.06R
HASTINGS       CLEAR     49  43  80 CALM      30.05R
KEARNEY        CLEAR     45  39  81 W8        30.07R
ORD            CLEAR     40  36  86 NW3       30.06R
YORK           CLEAR     45  43  93 NW6       30.03S
AURORA         CLEAR     43  41  93 W5        30.04S
LEXINGTON      CLEAR     40  38  91 W6        30.08R
HOLDREGE       CLEAR     44  41  88 CALM      30.06S
HEBRON         CLEAR     46  44  91 CALM      30.03S

...NEBRASKA PANHANDLE...

CITY           SKY/WX    TMP DP  RH WIND       PRES   REMARKS
CHADRON        CLEAR     35  33  92 CALM      30.08F
ALLIANCE       CLEAR     33  29  85 CALM      30.11F
SCOTTSBLUFF    CLEAR     39  35  86 N7        30.11F WCI  34
SIDNEY         CLEAR     37  33  85 W8        30.13F WCI  31

...WESTERN AND NORTH CENTRAL NEBRASKA...

CITY           SKY/WX    TMP DP  RH WIND       PRES   REMARKS
VALENTINE      CLEAR     33  31  92 W5        30.10R WCI  29
AINSWORTH      CLEAR     39  35  85 W6        30.09R WCI  35
ONEILL         CLEAR     45  39  79 NW6       30.07R
BROKEN BOW     CLEAR     37  33  85 CALM      30.07S
IMPERIAL       CLEAR     40  33  76 CALM      30.11F
NORTH PLATTE   CLEAR     36  34  92 CALM      30.10S
MCCOOK         CLEAR     40  37  89 SW7       30.09S

...EASTERN NEBRASKA...

CITY           SKY/WX    TMP DP  RH WIND       PRES   REMARKS
NORFOLK        CLEAR     45  39  79 W6        30.04R
SO SIOUX CITY  CLEAR     40  39  97 NW5       30.03R
TEKAMAH        FAIR      44  41  89 N8        30.01R
COLUMBUS       CLEAR     45  37  76 CALM      30.04R
ALBION         CLEAR     45  38  76 NW9       30.05R
OMAHA EPPLEY   CLEAR     49  45  86 N7        30.00R
OFFUTT AFB     CLEAR     47  47 100 W9        29.99R
MILLARD        CLEAR     49  46  90 NW3       30.00R
LINCOLN        CLEAR     45  42  89 CALM      30.02R
NEBRASKA CITY  CLEAR     53  47  80 W6        29.98R
BEATRICE       CLEAR     43  42  97 CALM      30.01S
FALLS CITY     CLEAR     51  48  89 W7        29.97F

...NORTHERN KANSAS...

CITY           SKY/WX    TMP DP  RH WIND       PRES   REMARKS
GOODLAND       CLEAR     42  39  89 W6        30.13S
HILL CITY      CLEAR     44  41  89 W3        30.06S
NORTON         SUNNY     39  37  93 W5        30.06R
PHILLIPSBURG   CLEAR     46  46 100 NW7       30.05S
SMITH CENTER   CLEAR     39  39 100 N6        30.05S WCI  35
BELOIT         CLEAR     45  45 100 CALM      30.03R
HAYS           CLEAR     46  39  76 NW6       30.03S
RUSSELL        CLEAR     47  46  97 NW7       30.02R
CONCORDIA      CLEAR     47  47 100 W5        30.03R
SALINA         CLEAR     50  46  86 CALM      30.02S
TOPEKA         CLEAR     49  49 100 CALM      30.01S FOG



USA.gov is the U.S. government's official web portal to all federal, state and local government web resources and services.